• In Belarus
  • List of Countries
  • For 7 days
  • Water Temperature
  • Satellite Maps
  • Weather Map
  • Weather Widgets
  • user-avatar
    Login

    Hourly Weather Yoro

    Today, 21 April, Sunday

    Time Temperature Precipitation Wind Pressure Humidity
    00:00 +18°C° 0 mm 0 mps 702 mmHg 89%
    01:00 +18°C° 0 mm 0 mps 702 mmHg 90%
    02:00 +20°C° 0 mm 1 mps 702 mmHg 90%
    03:00 +20°C° 0 mm 1 mps 701 mmHg 91%
    04:00 +20°C° 0 mm 1 mps 701 mmHg 91%
    05:00 +20°C° 0 mm 1 mps 702 mmHg 92%
    06:00 +21°C° 0 mm 1 mps 702 mmHg 91%
    07:00 +22°C° 0.1 mm 1 mps 702 mmHg 86%
    08:00 +23°C° 0.1 mm 1 mps 702 mmHg 82%
    09:00 +24°C° 0.1 mm 1 mps 703 mmHg 77%
    10:00 +25°C° 0.1 mm 1 mps 702 mmHg 73%
    11:00 +26°C° 0.1 mm 1 mps 702 mmHg 69%
    12:00 +27°C° 0.1 mm 2 mps 702 mmHg 66%
    13:00 +27°C° 0.2 mm 2 mps 702 mmHg 66%
    14:00 +27°C° 0.2 mm 2 mps 701 mmHg 67%
    15:00 +27°C° 0.2 mm 2 mps 701 mmHg 67%
    16:00 +26°C° 0.2 mm 2 mps 701 mmHg 73%
    17:00 +25°C° 0.2 mm 1 mps 701 mmHg 79%
    18:00 +24°C° 0.2 mm 1 mps 701 mmHg 85%
    19:00 +23°C° 0.1 mm 1 mps 701 mmHg 88%
    20:00 +23°C° 0.1 mm 1 mps 702 mmHg 91%
    21:00 +22°C° 0.1 mm 1 mps 702 mmHg 94%
    22:00 +22°C° 0 mm 1 mps 702 mmHg 95%
    23:00 +22°C° 0 mm 1 mps 702 mmHg 95%

    Tomorrow, 22 April, Monday

    Time Temperature Precipitation Wind Pressure Humidity
    00:00 +19°C° 0 mm 0 mps 702 mmHg 95%
    01:00 +19°C° 0 mm 0 mps 701 mmHg 95%
    02:00 +19°C° 0 mm 0 mps 701 mmHg 94%
    03:00 +19°C° 0 mm 0 mps 700 mmHg 94%
    04:00 +19°C° 0 mm 0 mps 700 mmHg 93%
    05:00 +19°C° 0 mm 0 mps 701 mmHg 92%
    06:00 +19°C° 0 mm 0 mps 701 mmHg 92%
    07:00 +22°C° 0 mm 0 mps 701 mmHg 79%
    08:00 +26°C° 0 mm 1 mps 702 mmHg 67%
    09:00 +29°C° 0 mm 1 mps 703 mmHg 55%
    10:00 +30°C° 0 mm 1 mps 702 mmHg 50%
    11:00 +32°C° 0 mm 1 mps 702 mmHg 45%
    12:00 +34°C° 0 mm 2 mps 702 mmHg 41%
    13:00 +32°C° 0 mm 2 mps 701 mmHg 45%
    14:00 +31°C° 0 mm 2 mps 700 mmHg 49%
    15:00 +30°C° 0 mm 2 mps 699 mmHg 53%
    16:00 +29°C° 0.2 mm 2 mps 699 mmHg 60%
    17:00 +28°C° 0.2 mm 1 mps 699 mmHg 68%
    18:00 +26°C° 0.2 mm 1 mps 699 mmHg 76%
    19:00 +25°C° 0.4 mm 1 mps 700 mmHg 81%
    20:00 +24°C° 0.4 mm 1 mps 700 mmHg 86%
    21:00 +24°C° 0.4 mm 1 mps 701 mmHg 92%
    22:00 +23°C° 0.4 mm 1 mps 701 mmHg 92%
    23:00 +21°C° 0.4 mm 0 mps 701 mmHg 92%

    Day after tomorrow, 23 April, Tuesday

    Time Temperature Precipitation Wind Pressure Humidity
    00:00 +21°C° 0.4 mm 0 mps 700 mmHg 92%
    01:00 +21°C° 0.2 mm 0 mps 700 mmHg 92%
    02:00 +21°C° 0.2 mm 0 mps 700 mmHg 92%
    03:00 +20°C° 0.2 mm 0 mps 699 mmHg 92%
    04:00 +20°C° 0 mm 0 mps 699 mmHg 92%
    05:00 +20°C° 0 mm 0 mps 700 mmHg 92%
    06:00 +20°C° 0 mm 0 mps 700 mmHg 92%
    07:00 +25°C° 0 mm 1 mps 700 mmHg 81%
    08:00 +27°C° 0 mm 1 mps 701 mmHg 71%
    09:00 +29°C° 0 mm 1 mps 702 mmHg 60%
    10:00 +31°C° 0 mm 1 mps 702 mmHg 53%
    11:00 +33°C° 0 mm 1 mps 701 mmHg 46%
    12:00 +34°C° 0 mm 1 mps 701 mmHg 39%
    13:00 +34°C° 0 mm 1 mps 700 mmHg 40%
    14:00 +33°C° 0 mm 1 mps 699 mmHg 42%
    15:00 +32°C° 0 mm 1 mps 698 mmHg 44%
    16:00 +30°C° 0.1 mm 1 mps 698 mmHg 52%
    17:00 +29°C° 0.1 mm 1 mps 698 mmHg 60%
    18:00 +27°C° 0.1 mm 1 mps 698 mmHg 68%
    19:00 +26°C° 0.1 mm 1 mps 699 mmHg 75%
    20:00 +25°C° 0.1 mm 1 mps 699 mmHg 81%
    21:00 +24°C° 0.1 mm 1 mps 700 mmHg 88%
    22:00 +24°C° 0.1 mm 1 mps 700 mmHg 88%
    23:00 +23°C° 0.1 mm 1 mps 700 mmHg 89%

    24 April, Wednesday

    Time Temperature Precipitation Wind Pressure Humidity
    00:00 +23°C° 0.1 mm 1 mps 700 mmHg 89%
    01:00 +23°C° 0 mm 1 mps 699 mmHg 89%
    02:00 +23°C° 0 mm 1 mps 699 mmHg 89%
    03:00 +22°C° 0 mm 1 mps 698 mmHg 89%
    04:00 +22°C° 0 mm 1 mps 699 mmHg 89%
    05:00 +22°C° 0 mm 1 mps 699 mmHg 89%
    06:00 +22°C° 0 mm 1 mps 699 mmHg 89%
    07:00 +25°C° 0 mm 1 mps 700 mmHg 77%
    08:00 +27°C° 0 mm 1 mps 700 mmHg 66%
    09:00 +30°C° 0 mm 1 mps 701 mmHg 54%
    10:00 +32°C° 0 mm 1 mps 701 mmHg 48%
    11:00 +34°C° 0 mm 1 mps 701 mmHg 42%
    12:00 +34°C° 0 mm 0 mps 701 mmHg 36%
    13:00 +33°C° 0 mm 0 mps 700 mmHg 38%
    14:00 +34°C° 0 mm 1 mps 699 mmHg 40%
    15:00 +33°C° 0 mm 1 mps 698 mmHg 42%
    16:00 +31°C° 0 mm 1 mps 698 mmHg 48%
    17:00 +30°C° 0 mm 1 mps 698 mmHg 53%
    18:00 +29°C° 0 mm 1 mps 698 mmHg 58%
    19:00 +27°C° 0 mm 1 mps 698 mmHg 64%
    20:00 +26°C° 0 mm 1 mps 699 mmHg 70%
    21:00 +25°C° 0 mm 1 mps 699 mmHg 76%
    22:00 +25°C° 0 mm 1 mps 699 mmHg 74%
    23:00 +25°C° 0 mm 1 mps 699 mmHg 73%

    25 April, Thursday

    Time Temperature Precipitation Wind Pressure Humidity
    00:00 +24°C° 0 mm 1 mps 699 mmHg 72%
    01:00 +24°C° 0 mm 1 mps 698 mmHg 74%
    02:00 +23°C° 0 mm 1 mps 698 mmHg 76%
    03:00 +23°C° 0 mm 1 mps 697 mmHg 79%
    04:00 +23°C° 0 mm 1 mps 698 mmHg 81%
    05:00 +23°C° 0 mm 1 mps 698 mmHg 83%
    06:00 +23°C° 0 mm 1 mps 699 mmHg 86%
    07:00 +25°C° 0 mm 1 mps 699 mmHg 75%
    08:00 +28°C° 0 mm 2 mps 700 mmHg 64%
    09:00 +30°C° 0 mm 2 mps 701 mmHg 53%
    10:00 +32°C° 0 mm 2 mps 700 mmHg 46%
    11:00 +34°C° 0 mm 1 mps 700 mmHg 40%
    12:00 +36°C° 0 mm 1 mps 700 mmHg 33%
    13:00 +36°C° 0 mm 1 mps 699 mmHg 33%
    14:00 +36°C° 0 mm 1 mps 699 mmHg 32%
    15:00 +36°C° 0 mm 1 mps 698 mmHg 31%
    16:00 +34°C° 0 mm 1 mps 698 mmHg 37%
    17:00 +32°C° 0 mm 1 mps 698 mmHg 44%
    18:00 +31°C° 0 mm 1 mps 698 mmHg 50%
    19:00 +29°C° 0 mm 1 mps 698 mmHg 55%
    20:00 +28°C° 0 mm 1 mps 699 mmHg 60%
    21:00 +27°C° 0 mm 1 mps 699 mmHg 65%
    22:00 +26°C° 0 mm 1 mps 699 mmHg 64%
    23:00 +26°C° 0 mm 1 mps 699 mmHg 63%

    26 April, Friday

    Time Temperature Precipitation Wind Pressure Humidity
    00:00 +25°C° 0 mm 1 mps 699 mmHg 62%
    01:00 +25°C° 0 mm 1 mps 699 mmHg 65%
    02:00 +24°C° 0 mm 1 mps 699 mmHg 68%
    03:00 +24°C° 0 mm 1 mps 698 mmHg 70%
    04:00 +24°C° 0 mm 1 mps 699 mmHg 73%
    05:00 +24°C° 0 mm 1 mps 699 mmHg 76%
    06:00 +24°C° 0 mm 1 mps 699 mmHg 78%
    07:00 +27°C° 0 mm 1 mps 700 mmHg 67%
    08:00 +30°C° 0 mm 1 mps 701 mmHg 57%
    09:00 +33°C° 0 mm 1 mps 702 mmHg 46%
    10:00 +33°C° 0 mm 1 mps 701 mmHg 43%
    11:00 +34°C° 0 mm 1 mps 701 mmHg 41%
    12:00 +35°C° 0 mm 2 mps 700 mmHg 39%
    13:00 +35°C° 0 mm 2 mps 700 mmHg 40%
    14:00 +35°C° 0 mm 2 mps 699 mmHg 41%
    15:00 +34°C° 0 mm 2 mps 699 mmHg 43%
    16:00 +32°C° 0 mm 2 mps 699 mmHg 48%
    17:00 +30°C° 0 mm 2 mps 699 mmHg 54%
    18:00 +29°C° 0 mm 1 mps 699 mmHg 59%
    19:00 +28°C° 0 mm 1 mps 699 mmHg 66%
    20:00 +26°C° 0 mm 1 mps 700 mmHg 72%
    21:00 +25°C° 0 mm 1 mps 700 mmHg 79%
    22:00 +24°C° 0 mm 1 mps 700 mmHg 79%
    23:00 +22°C° 0 mm 0 mps 699 mmHg 79%
    Show more